Flag for Costa Rica Weather past 2 weeks in San Jose, Costa Rica

Now
68 °F

Passing clouds.


Feels Like: 68 °F
Forecast: 60 / 82 °F
Wind: 20 mph from Southeast

Location: Juan Santamaria

Current Time: Mar 1, 2015 at 11:47:35 PM

Latest Report: Mar 1, 2015 at 11:00 PM


Visibility: N/A

Pressure: 30.04 "Hg

Humidity: 73%

Dew point: 59 °F

Location of San JoseLocation

Historic Weather in San Jose — Graph

°F

San Jose temperature yesterday

Maximum temperature yesterday: 81 °F (at 12:00 PM)
Minimum temperature yesterday: 70 °F (at 12:00 AM)
Average temperature yesterday: 74 °F

Past Weeks' High & Low Weather Summary

 TemperatureHumidityPressure
High91 °F (Feb 15, 8:00 AM)83% (Feb 18, 6:00 AM)30.11 "Hg (Feb 18, 6:00 AM)
Low63 °F (Feb 18, 3:00 AM)20% (Feb 19, 1:00 PM)29.90 "Hg (Feb 26, 3:00 PM)
Average74 °F57%30.00 "Hg
* Reported Feb 14 10:00 PM — Mar 1 10:00 PM, San Jose, Weather by CustomWeather, © 2015

Note: Actual official high and low records may vary slightly from our data, if they occured in-between our weather recording intervals... More about our weather records

Advertising

San Jose weather history for previous 24 hours

 ConditionsComfort  
Time TempWeatherWind HumidityBarometerVisibility
10:00 PM
Sun, Mar 1
68 °FPassing clouds.14 mph73%30.07 "HgN/A
9:00 PM72 °FPassing clouds.13 mph61%30.06 "HgN/A
8:00 PM73 °FPassing clouds.13 mph53%30.04 "HgN/A
7:00 PM73 °FPassing clouds.18 mph61%30.01 "HgN/A
6:00 PM73 °FPassing clouds.13 mph61%30.01 "HgN/A
5:00 PM77 °FScattered clouds.15 mph54%30.00 "HgN/A
4:00 PM77 °FBroken clouds.17 mph54%29.99 "HgN/A
3:00 PM79 °FBroken clouds.18 mph51%29.98 "HgN/A
2:00 PM79 °FBroken clouds.20 mph51%30.00 "HgN/A
1:00 PM79 °FBroken clouds.18 mph54%30.02 "HgN/A
12:00 PM82 °FPartly sunny.12 mph45%30.04 "HgN/A
11:00 AM79 °FPartly sunny.18 mph51%30.05 "HgN/A
10:00 AM79 °FPartly sunny.17 mph51%30.06 "HgN/A
9:00 AM75 °FLight rain. Partly sunny.15 mph61%30.08 "HgN/A
8:00 AM73 °FPartly sunny.17 mph65%30.07 "HgN/A
7:00 AM73 °FScattered clouds.16 mph61%30.04 "HgN/A
6:00 AM70 °FPassing clouds.15 mph60%30.03 "HgN/A
5:00 AM70 °FPassing clouds.14 mph73%30.01 "HgN/A
4:00 AM70 °FPassing clouds.16 mph69%30.00 "HgN/A
3:00 AM70 °FPassing clouds.16 mph73%30.00 "HgN/A
2:00 AM70 °FPassing clouds.16 mph69%30.00 "HgN/A
1:00 AM72 °FPassing clouds.15 mph61%30.01 "HgN/A
12:00 AM70 °FPassing clouds.15 mph69%30.02 "HgN/A
11:00 PM
Sat, Feb 28
70 °FClear.18 mph64%30.03 "Hg10 mi
Weather by CustomWeather, © 2015

See weather overviewHow to use our weather pages